{"data":{"norad_id":39216,"epoch":"2026-05-24T23:13:30.722016Z","epoch_age_seconds":91924,"freshness":"FRESH","line1":"1 39216U 13038B   26144.96771669 -.00000341  00000+0  00000+0 0  9991","line2":"2 39216   1.8683  82.8154 0000822 318.8689 318.7596  1.00274270 46846","mean_motion":1.0027427,"eccentricity":8.22e-5,"inclination_deg":1.8683,"raan_deg":82.8154,"arg_perigee_deg":318.8689,"mean_anomaly_deg":318.7596,"bstar":0,"rev_number":4684,"period_min":1436.0613146324,"perigee_km":35782.432456164,"apogee_km":35789.364223574,"semimajor_km":42164.035339869,"source":"CELESTRAK","updated_at":"2026-05-25T13:38:13.944421Z"}}